📊 Raw Sensor Data

Showing records 48176 to 48200 of 85,096 total

ID Distance (ft) Battery V Battery A Int Temp (°F) Int Humid (%) Ext Temp (°F) Solar V RSSI SNR Time Stamp
36933 15.0 3.83 -5 41 40 42 0.10 -77 8 04/05/2025 06:00 AM
36932 -- 3.83 -5 41 40 42 0.00 -76 8 04/05/2025 05:45 AM
36931 15.1 3.89 -5 42 40 44 0.00 -77 8 04/05/2025 05:30 AM
36930 15.1 3.83 -5 41 40 44 0.00 -76 8 04/05/2025 05:15 AM
36929 15.1 3.83 -5 41 40 44 0.00 -77 8 04/05/2025 05:00 AM
36928 15.1 3.89 -5 41 40 43 0.00 -77 8 04/05/2025 04:45 AM
36927 15.2 3.83 -5 42 40 42 0.00 -77 8 04/05/2025 04:30 AM
36926 15.1 3.83 -5 42 40 44 0.00 -77 8 04/05/2025 04:15 AM
36925 15.1 3.89 -5 42 40 45 0.00 -77 8 04/05/2025 04:00 AM
36924 -- 3.83 -5 42 40 44 0.00 -77 8 04/05/2025 03:45 AM
36923 15.1 3.83 -5 42 40 44 0.00 -77 9 04/05/2025 03:30 AM
36922 15.1 3.89 -5 41 41 42 0.00 -77 8 04/05/2025 03:15 AM
36921 -- 3.83 -5 42 41 45 0.00 -78 7 04/05/2025 03:00 AM
36920 15.0 3.84 -5 43 41 45 0.00 -78 8 04/05/2025 02:45 AM
36919 15.2 3.83 -5 43 40 46 0.00 -78 8 04/05/2025 02:30 AM
36918 15.1 3.83 -5 44 40 47 0.00 -77 8 04/05/2025 02:15 AM
36917 -- 3.89 -5 44 41 47 0.10 -77 8 04/05/2025 02:00 AM
36916 15.1 3.83 -5 43 42 46 0.00 -77 8 04/05/2025 01:45 AM
36915 -- 3.83 -5 44 42 44 0.00 -77 8 04/05/2025 01:31 AM
36914 15.0 3.90 -5 45 42 47 0.00 -77 8 04/05/2025 01:15 AM
36913 -- 3.83 -5 47 41 49 0.00 -77 8 04/05/2025 01:00 AM
36912 15.1 3.90 -5 47 41 50 0.00 -77 8 04/05/2025 12:45 AM
36911 -- 3.83 -5 48 41 49 0.00 -77 8 04/05/2025 12:30 AM
36910 -- 3.90 -5 48 41 50 0.00 -77 8 04/05/2025 12:15 AM
36909 -- 3.84 -5 49 41 50 0.00 -76 8 04/05/2025 12:00 AM